Regional Weather Roundup
Issued by NWS Northern Indiana

Home | Current Version | Previous Version | Graphics & Text | Print | Product List | Glossary On
Versions: 1 2 3 4 5 6 7 8 9 10 11 12 13 14 15 16 17 18 19 20 21 22 23 24 25 26 27 28 29 30 31 32 33 34 35 36 37 38 39 40 41 42 43 44 45 46 47 48 49 50
000
ASUS43 KIWX 221500
RWRIWX

KIWX WEATHER ROUNDUP
NATIONAL WEATHER SERVICE NORTHERN INDIANA
1000 AM EST THU FEB 22 2018

NOTE: "FAIR" INDICATES FEW OR NO CLOUDS BELOW 12,000 FEET WITH NO
SIGNIFICANT WEATHER AND/OR OBSTRUCTIONS TO VISIBILITY.

* THESE STATIONS ARE NOT UNDER NWS QUALITY CONTROL. THEY ALSO MAY NOT
  REPORT WEATHER SUCH AS PRECIPITATION OR FOG.

INZ001>027-221600-
NORTHERN INDIANA

CITY           SKY/WX    TMP DP  RH WIND       PRES   REMARKS
GARY*          CLOUDY    34  30  86 NE12G23   30.55S WCI  25
SOUTH BEND     PTSUNNY   34  28  79 E9        30.55F WCI  27
ELKHART*       FAIR      36  28  75 E10       30.55S
GOSHEN         CLOUDY    35  27  72 E14       30.55R WCI  26
MONTICELLO*    CLOUDY    35  32  89 NE10G17   30.51R WCI  27
WARSAW*        CLOUDY    32  32 100 MISG      30.55R
AUBURN*        CLOUDY    32  30  93 E10G16    30.57R WCI  24
FORT WAYNE     DRIZZLE   34  31  88 NE15      30.54S WCI  24
PERU/GRISSOM   PTSUNNY   35  35 100 E17       30.48F WCI  25

$$
INZ028>050-221600-
CENTRAL INDIANA

CITY           SKY/WX    TMP DP  RH WIND       PRES   REMARKS
LAFAYETTE      CLOUDY    36  34  92 NE14G21   30.49R
KOKOMO*        MIX PCPN  35  33  92 E16G24    30.49F WCI  25
MUNCIE*        CLOUDY    36  33  89 NE16      30.50S
INDIANAPOLIS   CLOUDY    37  35  92 NE20G25   30.46R

$$
MIZ043>046-050>051-056>058-064>065-071>073-077>080-221600-
SOUTHWEST LOWER MICHIGAN

CITY           SKY/WX    TMP DP  RH WIND       PRES   REMARKS
BATTLE CREEK   CLOUDY    32  26  78 NE9       30.58S WCI  24
BENTON HARBOR  CLOUDY    35  28  75 E9        30.57S WCI  28
COLDWATER*     CLOUDY    32  26  76 NE10G16   30.56F WCI  24
HILLSDALE*     CLOUDY    32  23  69 NE9       30.56R WCI  24
HOLLAND        FAIR      34  27  75 E10       30.60S WCI  26
GRAND RAPIDS   CLOUDY    32  26  78 E15       30.60F WCI  22
KALAMAZOO      PTSUNNY   34  26  72 E6        30.58S WCI  29
THREE RIVERS*  CLOUDY    34  29  79 E12       30.57S WCI  26

$$
OHZ001>008-015>018-024>025-221600-
NORTHWEST OHIO

CITY           SKY/WX    TMP DP  RH WIND       PRES   REMARKS
DEFIANCE       CLOUDY    31  28  89 NE9G21    30.57F WCI  23
FINDLAY        LGT SNOW  34  29  82 N15       30.54F WCI  24
TOLEDO EXPRESS CLOUDY    32  28  85 E15       30.57S WCI  22
TOLEDO METCALF CLOUDY    32  26  78 E13G23    30.58R WCI  22
LIMA           MIX PCPN  33  32  96 N14       30.53R FOG     WCI  23

$$
AND FOR LAKE MICHIGAN COASTAL AND OPEN LAKE BUOY OBSERVATIONS

STATION/POSITION TEMP    WIND        PRES    VSBY  WAVE
                 AIR SEA DIR/SP/G                  HT/PER
                 (F)     (DEG/KT/KT) (MB)    (MI)  (FT/S)
CALUMET HARBOR    33      40/ 13/ 16 1033.7R
MICHIGAN CITY     32      40/ 13/ 14   N/A
BURNS HARBOR      32      60/ 15/ 18 1034.5F
SAINT JOSEPH      32      50/  4/  8 1035.9

$$
&&




USA.gov is the U.S. government's official web portal to all federal, state and local government web resources and services.